Location: Marsån
(66.4167°N, 22.2833°E)
Time: 12:01:49
(UTC+00:00)

JB-3 - Pass Details

Date: 24 February 2024
Orbit: 509 x 567 km, 97.2° (Epoch: 16 April)

Event Time Altitude Azimuth Distance (km) Brightness Sun altitude
Rises 16:57:15 0° 18° (NNE) 2,797 7.7 -10.0°
Reaches altitude 10° 16:59:25 10° 21° (NNE) 1,895 6.8 -10.2°
Maximum altitude 17:03:32 70° 105° (ESE) 614 4.3 -10.6°
Drops below altitude 10° 17:07:36 10° 190° (S) 1,872 7.1 -11.0°
Sets 17:09:44 0° 193° (SSW) 2,759 8.0 -11.2°
